Flag for Canada Weather past 2 weeks in Owen Sound, Ontario, Canada

30 °F


Feels Like: 22 °F
Forecast: 25 / 34 °F
Wind: 9 mph from North

Location: Wiarton

Current Time: Nov 27, 2015 at 9:25:50 PM

Latest Report: Nov 27, 2015 at 9:00 PM

Visibility: 15 mi

Pressure: 30.40 "Hg

Humidity: 86%

Dew point: 27 °F

Location of Owen SoundLocation

Historic Weather in Owen Sound — Graph


Owen Sound temperature yesterday

Maximum temperature yesterday: 55 °F (at 11:00 PM)
Minimum temperature yesterday: 43 °F (at 9:00 AM)
Average temperature yesterday: 48 °F

Past Weeks' High & Low Weather Summary

High61 °F (Nov 18, 2:00 PM)100% (Nov 13, 4:00 AM)30.51 "Hg (Nov 13, 4:00 AM)
Low18 °F (Nov 23, 2:00 AM)44% (Nov 17, 12:00 PM)29.27 "Hg (Nov 12, 8:00 PM)
Average40 °F80%30.08 "Hg
* Reported Nov 12 8:00 PM — Nov 27 8:00 PM, Owen Sound, Weather by CustomWeather, © 2015

Note: Actual official high and low records may vary slightly from our data, if they occured in-between our weather recording intervals... More about our weather records


Owen Sound weather history for previous 24 hours

Time TempWeatherWind HumidityBarometerVisibility
8:00 PM
Fri, Nov 27
32 °FSnow flurries. Overcast.12 mph80%30.39 "Hg4 mi
7:00 PM30 °FSnow flurries. Overcast.9 mph93%30.40 "Hg6 mi
6:00 PM32 °FSnow flurries. Mostly cloudy.9 mph87%30.37 "Hg8 mi
5:00 PM32 °FIce fog.9 mph87%30.34 "Hg4 mi
4:00 PM32 °FLight snow. Ice fog.7 mph93%30.33 "Hg1 mi
3:00 PM32 °FLight snow. Ice fog.8 mph100%30.28 "Hg2 mi
2:00 PM34 °FLight rain. Fog.6 mph93%30.28 "Hg4 mi
1:00 PM34 °FLight rain. Fog.9 mph100%30.26 "Hg4 mi
12:00 PM37 °FFog.7 mph93%30.24 "Hg4 mi
11:00 AM37 °FSprinkles. Fog.7 mph93%30.22 "Hg4 mi
10:00 AM39 °FSprinkles. Fog.8 mph93%30.21 "Hg4 mi
9:00 AM43 °FSprinkles. Fog.9 mph100%30.17 "Hg4 mi
8:00 AM45 °FSprinkles. Fog.8 mph100%30.16 "Hg6 mi
7:00 AM48 °FSprinkles. Fog.10 mph94%30.14 "Hg6 mi
6:00 AM54 °FSprinkles. Fog.22 mph88%30.12 "Hg6 mi
5:00 AM54 °FSprinkles. Fog.21 mph88%30.11 "Hg6 mi
4:00 AM54 °FSprinkles. Fog.20 mph88%30.13 "Hg6 mi
3:00 AM59 °FOvercast.24 mph63%30.14 "Hg15 mi
2:00 AM55 °FSprinkles. Overcast.26 mph77%30.14 "Hg8 mi
1:00 AM57 °FOvercast.26 mph67%30.14 "Hg15 mi
12:00 AM57 °FSprinkles. Mostly cloudy.30 mph67%30.15 "Hg12 mi
11:00 PM
Thu, Nov 26
55 °FSprinkles. Mostly cloudy.24 mph77%30.15 "Hg12 mi
10:00 PM54 °FSprinkles. Overcast.24 mph88%30.16 "Hg8 mi
9:56 PM54 °FSprinkles. Overcast.24 mph82%30.16 "Hg8 mi
9:00 PM54 °FSprinkles. Mostly cloudy.24 mph82%30.18 "Hg8 mi
Weather by CustomWeather, © 2015

See weather overviewHow to use our weather pages